Weerstation Grootegast  Weerstation Grootegast


15 daagse weersverwachting Grenoble (FR)

  • Overzicht
  • Per uur
  • 15 dagen
  • Extra
  • Vergelijk
  • Kaarten
  • Dagkaart
  • Meer »
  • Info
  • Statistieken
  • Directe link
    Temp 6h Neerslag Wind  
 08:08     16:55    Daglengte: 8:47 Vandaag
07:00
2.5 mm
1
13:00
 
1
19:00
 
2
 08:09     16:55    Daglengte: 8:46 Morgen
01:00
7.6 mm
2
07:00
16.8 mm
3
13:00
21.8 mm
3
19:00
19.4 mm
2
 08:10     16:55    Daglengte: 8:45 Zaterdag 14 Dec
01:00
20.9 mm
2
07:00
30.9 mm
1
13:00
10°
40.3 mm
1
19:00
50.1 mm
2
 08:10     16:55    Daglengte: 8:45 Zondag 15 Dec
01:00
66.1 mm
2
Locatie info
Region: RhƓne-Alpes
Latitude: 45.1667°N
Longitude: 5.7167°E
221 masl
Temp/Neerslag /Baro Onweer/DauwpuntSneeuw
    Temp Baro 1h Neerslag Dauwpunt Wind UV BewolkingSneeuw  
 08:08     16:55    Daglengte: 8:47 Vandaag
05:00
Voelt als: 0.5°
1013.0 hPa 2.5 mm
48%
0.8°
2
Windvlaag: -2.1 m/s
39%7 cm
06:00
Voelt als: 0.8°
1013.3 hPa
47%
0.5°
1
Windvlaag: -2.7 m/s
33%7 cm
07:00
Voelt als: 0.8°
1013.4 hPa
46%
0.4°
1
Windvlaag: -2.2 m/s
23%7 cm
08:00
Voelt als: 1.3°
1013.4 hPa
46%
0.2°
1
Windvlaag: -1.9 m/s
47%7 cm
09:00
1013.4 hPa
46%
0.3°
1
Windvlaag: -1.3 m/s
47%7 cm
10:00
1013.3 hPa
37%
1.1°
1
Windvlaag: -1.5 m/s
21%7 cm
11:00
Voelt als: 3.8°
1012.9 hPa
17%
1.0°
1
Windvlaag: -1 m/s
12%7 cm
12:00
Voelt als: 3.9°
1011.5 hPa
14%
0.5°
1
Windvlaag: -0.6 m/s
11%7 cm
13:00
Voelt als: 4.2°
1010.3 hPa
14%
-0.7°
1
Windvlaag: -1 m/s
9%6 cm
14:00
Voelt als: 4.8°
1009.2 hPa
14%
-1.3°
1
Windvlaag: -0.8 m/s
4%6 cm
15:00
Voelt als: 4.4°
1007.8 hPa
14%
-1.5°
1
Windvlaag: 0.4 m/s
9%6 cm
16:00
Voelt als: 3.1°
1006.3 hPa
14%
-1.3°
2
Windvlaag: 0.1 m/s
17%6 cm
17:00
Voelt als: 1.9°
1004.9 hPa
14%
-2.4°
2
Windvlaag: 0.1 m/s
20%6 cm
18:00
Voelt als: 1.5°
1003.5 hPa
14%
-2.6°
2
Windvlaag: -0 m/s
46%6 cm
19:00
Voelt als: 1.1°
1002.2 hPa
14%
-2.6°
2
Windvlaag: 0.3 m/s
62%6 cm
20:00
Voelt als: 1.5°
1001.2 hPa
14%
-1.0°
2
Windvlaag: 1.2 m/s
87%6 cm
21:00
Voelt als: 1.3°
1000.5 hPa
15%
0.8°
3
Windvlaag: 3 m/s
91%6 cm
22:00
Voelt als: 1.6°
999.7 hPa 1.4 mm
79%
2.2°
3
Windvlaag: 4 m/s
90%6 cm
23:00
Voelt als: 1.8°
999.1 hPa 2.1 mm
82%
2.0°
3
Windvlaag: 3.9 m/s
90%6 cm
 08:09     16:55    Daglengte: 8:46 Morgen
00:00
Voelt als: 2.3°
998.7 hPa 1.9 mm
82%
2.4°
2
Windvlaag: 2.5 m/s
90%6 cm
01:00
Voelt als: 2.7°
997.7 hPa 2.3 mm
82%
3.2°
2
Windvlaag: 2.6 m/s
89%6 cm
02:00
Voelt als: 2.8°
996.5 hPa 2.2 mm
82%
3.3°
2
Windvlaag: 1.5 m/s
91%6 cm
03:00
Voelt als: 3.2°
995.2 hPa 2.2 mm
82%
3.6°
2
Windvlaag: 1.6 m/s
90%6 cm
04:00
Voelt als: 3.2°
993.8 hPa 2.8 mm
82%
3.6°
2
Windvlaag: 1.8 m/s
88%5 cm
05:00
Voelt als: 3.6°
992.3 hPa 2.8 mm
82%
3.9°
2
Windvlaag: 2.5 m/s
90%5 cm
06:00
Voelt als: 4.0°
991.7 hPa 3.6 mm
82%
4.1°
2
Windvlaag: 3 m/s
87%5 cm
07:00
Voelt als: 3.7°
990.9 hPa 3.2 mm
82%
4.0°
3
Windvlaag: -0.4 m/s
75%5 cm
08:00
Voelt als: 3.7°
990.1 hPa 3.6 mm
82%
3.6°
3
Windvlaag: -1.7 m/s
90%5 cm
09:00
Voelt als: 4.7°
991.1 hPa 3.8 mm
82%
3.2°
2
Windvlaag: -1.4 m/s
86%5 cm
10:00
Voelt als: 4.3°
992.4 hPa 5.1 mm
82%
4.1°
3
Windvlaag: -1.4 m/s
87%5 cm
11:00
Voelt als: 5.8°
993.2 hPa 3.7 mm
82%
4.1°
2
Windvlaag: -1.7 m/s
80%4 cm
12:00
Voelt als: 4.6°
994.1 hPa 3.0 mm
82%
4.0°
3
Windvlaag: -4.2 m/s
66%4 cm
13:00
Voelt als: 4.3°
994.4 hPa 2.6 mm
82%
4.0°
3
Windvlaag: -2.7 m/s
78%4 cm
14:00
Voelt als: 3.4°
995.4 hPa 3.5 mm
82%
4.0°
3
Windvlaag: -1.8 m/s
74%6 cm
15:00
Voelt als: 3.1°
996.3 hPa 3.3 mm
82%
3.4°
3
Windvlaag: -1.7 m/s
71%6 cm
16:00
Voelt als: 2.6°
997.2 hPa 3.1 mm
82%
2.6°
3
Windvlaag: -0.6 m/s
70%6 cm
17:00
Voelt als: 1.8°
998.5 hPa 3.2 mm
82%
1.9°
3
Windvlaag: -0.1 m/s
71%6 cm
18:00
Voelt als: 1.8°
999.7 hPa 3.1 mm
82%
1.9°
2
Windvlaag: 0.1 m/s
73%5 cm
19:00
Voelt als: 1.8°
1000.9 hPa 3.0 mm
82%
2.0°
2
Windvlaag: -0.3 m/s
70%5 cm
20:00
Voelt als: 1.9°
1002.0 hPa 3.1 mm
82%
1.9°
2
Windvlaag: 0.1 m/s
60%5 cm
21:00
Voelt als: 2.0°
1002.5 hPa 3.1 mm
82%
1.9°
2
Windvlaag: 0.1 m/s
67%5 cm
22:00
Voelt als: 3.1°
1002.7 hPa 3.0 mm
100%
1.9°
1
Windvlaag: -0.2 m/s
96%5 cm
23:00
Voelt als: 2.7°
1003.1 hPa 3.3 mm
100%
2.1°
1
Windvlaag: -0.1 m/s
99%5 cm
 08:10     16:55    Daglengte: 8:45 Zaterdag 14 Dec
00:00
Voelt als: 2.1°
1003.3 hPa 4.0 mm
100%
2.4°
1
Windvlaag: -1.1 m/s
98%5 cm
01:00
Voelt als: 2.2°
1003.2 hPa 4.4 mm
100%
2.4°
2
Windvlaag: -1.8 m/s
98%5 cm
02:00
Voelt als: 2.1°
1003.0 hPa 6.3 mm
100%
2.5°
2
Windvlaag: -1.5 m/s
99%6 cm
03:00
Voelt als: 1.8°
1003.2 hPa 5.5 mm
100%
2.2°
2
Windvlaag: -0.9 m/s
96%7 cm
04:00
Voelt als: 2.9°
1003.1 hPa 4.7 mm
100%
2.5°
2
Windvlaag: 0 m/s
95%7 cm
05:00
Voelt als: 3.4°
1002.9 hPa 4.9 mm
100%
2.9°
2
Windvlaag: -0.2 m/s
92%7 cm
06:00
Voelt als: 4.3°
1003.6 hPa 4.8 mm
100%
3.2°
2
Windvlaag: 0.4 m/s
88%7 cm
07:00
Voelt als: 5.5°
1004.4 hPa 4.7 mm
100%
3.6°
1
Windvlaag: 0.5 m/s
90%7 cm
08:00
Voelt als: 5.8°
1005.0 hPa 6.0 mm
100%
3.9°
1
Windvlaag: 1 m/s
93%7 cm
09:00
Voelt als: 6.8°
1006.1 hPa 7.3 mm
100%
4.4°
1
Windvlaag: 1.1 m/s
89%7 cm
10:00
Voelt als: 5.7°
1006.8 hPa 7.2 mm
100%
4.7°
2
Windvlaag: 1 m/s
100%7 cm
11:00
Voelt als: 6.6°
1007.7 hPa 6.9 mm
100%
5.1°
2
Windvlaag: 0.6 m/s
95%6 cm
12:00
Voelt als: 7.0°
1008.0 hPa 6.5 mm
100%
5.2°
2
Windvlaag: 0.5 m/s
79%6 cm
13:00
10°
1008.0 hPa 6.4 mm
100%
6.2°
1
Windvlaag: 0.8 m/s
98%6 cm
14:00
10°
1008.6 hPa 6.3 mm
100%
6.2°
1
Windvlaag: 0.9 m/s
99%5 cm
15:00
10°
1009.2 hPa 6.4 mm
100%
6.4°
1
Windvlaag: 1 m/s
100%5 cm
16:00
Voelt als: 8.5°
1010.1 hPa 6.6 mm
100%
6.5°
2
Windvlaag: 1.1 m/s
90%5 cm
17:00
Voelt als: 7.6°
1010.3 hPa 10.3 mm
100%
6.5°
2
Windvlaag: 1.2 m/s
83%5 cm
18:00
Voelt als: 7.3°
1010.9 hPa 10.2 mm
98%
6.6°
2
Windvlaag: 1.3 m/s
93%5 cm
19:00
Voelt als: 7.0°
1011.3 hPa 10.3 mm
95%
6.8°
2
Windvlaag: 1.4 m/s
95%4 cm
20:00
Voelt als: 7.1°
1011.2 hPa 10.4 mm
100%
6.8°
2
Windvlaag: 9.5 m/s
97%4 cm
21:00
Voelt als: 6.7°
1011.5 hPa 11.5 mm
100%
6.3°
2
Windvlaag: 8.6 m/s
96%4 cm
22:00
Voelt als: 6.6°
1011.6 hPa 12.1 mm
100%
6.1°
2
Windvlaag: 8.7 m/s
92%4 cm
23:00
Voelt als: 6.4°
1011.8 hPa 11.3 mm
100%
5.8°
2
Windvlaag: 8.6 m/s
92%4 cm
 08:10     16:55    Daglengte: 8:45 Zondag 15 Dec
00:00
Voelt als: 6.3°
1011.8 hPa 10.5 mm
100%
5.5°
2
Windvlaag: 8.2 m/s
88%4 cm
01:00
Voelt als: 6.2°
1011.9 hPa 10.3 mm
94%
5.3°
2
Windvlaag: 1.4 m/s
79%4 cm
02:00
Voelt als: 5.1°
1011.6 hPa 30.6 mm
100%
4.4°
2
Windvlaag: 10.5 m/s
73%4 cm
03:00
Voelt als: 5.2°
1011.7 hPa 30.6 mm
100%
4.4°
2
Windvlaag: 9.9 m/s
68%4 cm
04:00
Voelt als: 5.1°
1011.7 hPa 30.6 mm
100%
4.3°
2
Windvlaag: 9.7 m/s
50%4 cm
Temp/Neerslag /Baro Onweer/DauwpuntSneeuw
    Temp Baro Neerslag Dauwpunt Wind BewolkingSneeuw  
 08:08     16:55    Daglengte: 8:47 Vandaag
07:00
Voelt als: 0.8°
1013.4 hPa 2.5 mm 0.4°
1
23%7 cm
10:00
1013.3 hPa   1.1°
1
21%7 cm
13:00
Voelt als: 4.2°
1010.3 hPa   -0.7°
1
9%6 cm
16:00
Voelt als: 3.1°
1006.3 hPa   -1.3°
2
17%6 cm
19:00
Voelt als: 1.1°
1002.2 hPa   -2.6°
2
62%6 cm
22:00
Voelt als: 1.6°
999.7 hPa 1.4 mm 2.2°
3
90%6 cm
 08:09     16:55    Daglengte: 8:46 Morgen
01:00
Voelt als: 2.7°
997.7 hPa 6.3 mm 3.2°
2
89%6 cm
04:00
Voelt als: 3.2°
993.8 hPa 7.1 mm 3.6°
2
88%5 cm
07:00
Voelt als: 3.7°
990.9 hPa 9.7 mm 4.0°
3
75%5 cm
10:00
Voelt als: 4.3°
992.4 hPa 12.5 mm 4.1°
3
87%5 cm
13:00
Voelt als: 4.3°
994.4 hPa 9.3 mm 4.0°
3
78%4 cm
16:00
Voelt als: 2.6°
997.2 hPa 9.9 mm 2.6°
3
70%6 cm
19:00
Voelt als: 1.8°
1000.9 hPa 9.4 mm 2.0°
2
70%5 cm
22:00
Voelt als: 3.1°
1002.7 hPa 9.2 mm 1.9°
1
96%5 cm
 08:10     16:55    Daglengte: 8:45 Zaterdag 14 Dec
01:00
Voelt als: 2.2°
1003.2 hPa 11.7 mm 2.4°
2
98%5 cm
04:00
Voelt als: 2.9°
1003.1 hPa 16.5 mm 2.5°
2
95%7 cm
07:00
Voelt als: 5.5°
1004.4 hPa 14.3 mm 3.6°
1
90%7 cm
10:00
Voelt als: 5.7°
1006.8 hPa 20.5 mm 4.7°
2
100%7 cm
13:00
10°
1008.0 hPa 19.8 mm 6.2°
1
98%6 cm
16:00
Voelt als: 8.5°
1010.1 hPa 19.3 mm 6.5°
2
90%5 cm
19:00
Voelt als: 7.0°
1011.3 hPa 30.8 mm 6.8°
2
95%4 cm
22:00
Voelt als: 6.6°
1011.6 hPa 34.0 mm 6.1°
2
92%4 cm
 08:10     16:55    Daglengte: 8:45 Zondag 15 Dec
01:00
Voelt als: 6.2°
1011.9 hPa 32.1 mm 5.3°
2
79%4 cm
04:00
Voelt als: 5.1°
1011.7 hPa 91.8 mm 4.3°
2
50%4 cm
07:00
Voelt als: 5.4°
1011.5 hPa 91.8 mm 4.1°
2
24%3 cm
10:00
11°
1012.0 hPa 54.7 mm 5.8°
1
48%
13:00
13°
1012.0 hPa 54.7 mm 6.9°
1
62%
16:00
11°
1011.8 hPa 54.7 mm 6.4°
1
66%
19:00
Voelt als: 8.7°
1011.9 hPa 54.7 mm 5.6°
1
69%
22:00
Voelt als: 7.3°
1013.2 hPa 54.7 mm 4.3°
1
50%
 08:11     16:55    Daglengte: 8:44 Maandag 16 Dec
01:00
1014.6 hPa 54.7 mm 3.1°
0
31%
04:00
1013.9 hPa 54.7 mm 2.3°
1
47%
07:00
Voelt als: 4.3°
1013.2 hPa 54.7 mm 1.3°
1
63%
10:00
Voelt als: 8.4°
1012.4 hPa 54.7 mm 2.7°
1
77%
13:00
13°
1011.5 hPa 54.7 mm 3.2°
2
91%
16:00
11°
1011.0 hPa 54.7 mm 3.1°
2
90%
19:00
10°
Voelt als: 8.7°
1010.4 hPa 54.7 mm 2.7°
2
89%
22:00
10°
1009.9 hPa 54.7 mm 3.2°
2
90%
 08:12     16:56    Daglengte: 8:44 Dinsdag 17 Dec
01:00
10°
1009.2 hPa 54.7 mm 3.6°
1
91%
04:00
10°
Voelt als: 9.4°
1009.0 hPa 54.7 mm 3.0°
2
72%
07:00
10°
Voelt als: 9.0°
1008.8 hPa 54.7 mm 2.4°
2
54%
10:00
12°
1009.3 hPa 54.7 mm 5.3°
1
66%
13:00
14°
1009.8 hPa 54.7 mm 8.3°
1
79%
16:00
12°
1010.3 hPa 55.0 mm 6.9°
1
67%
19:00
Voelt als: 8.7°
1010.9 hPa 55.0 mm 5.4°
2
56%
22:00
Voelt als: 8.0°
1013.1 hPa 55.1 mm 3.9°
1
74%
 08:12     16:56    Daglengte: 8:44 Woensdag 18 Dec
01:00
1015.1 hPa 55.1 mm 2.5°
1
92%
04:00
Voelt als: 6.9°
1015.0 hPa 55.1 mm 2.2°
1
92%
07:00
Voelt als: 6.5°
1014.9 hPa 55.1 mm 1.9°
2
92%
10:00
10°
1015.0 hPa 55.1 mm 4.4°
1
58%
13:00
12°
1014.9 hPa 55.1 mm 7.0°
0
25%
16:00
11°
1014.2 hPa 55.1 mm 6.6°
1
40%
19:00
Voelt als: 8.7°
1013.7 hPa 55.1 mm 5.9°
1
55%
22:00
Voelt als: 7.4°
1012.8 hPa 55.1 mm 4.5°
1
73%
 08:13     16:56    Daglengte: 8:43 Donderdag 19 Dec
01:00
Voelt als: 6.1°
1011.9 hPa 55.1 mm 3.2°
1
91%
04:00
Voelt als: 5.1°
1010.7 hPa   2.5°
1
86%
07:00
Voelt als: 4.1°
1009.5 hPa 110.1 mm 1.9°
1
80%
13:00
12°
1006.4 hPa 110.1 mm 6.6°
1
4%
19:00
10°
1004.6 hPa 110.1 mm 5.4°
1
92%
 08:14     16:57    Daglengte: 8:43 Vrijdag 20 Dec
01:00
Voelt als: 5.5°
1003.3 hPa 110.1 mm 4.8°
2
91%
07:00
Voelt als: 5.9°
999.4 hPa 110.1 mm 2.0°
2
77%
13:00
11°
992.6 hPa 110.1 mm 7.0°
1
81%
19:00
Voelt als: 8.7°
991.8 hPa 110.1 mm 6.4°
0
92%
 08:14     16:57    Daglengte: 8:43 Zaterdag 21 Dec
01:00
Voelt als: 5.4°
996.1 hPa 110.1 mm 4.8°
1
92%
07:00
Voelt als: 5.4°
999.3 hPa 110.2 mm 4.8°
1
88%
13:00
12°
1007.9 hPa 110.2 mm 8.8°
1
1%
19:00
Voelt als: 8.0°
1009.9 hPa 110.2 mm 7.3°
1
1%
 08:15     16:58    Daglengte: 8:43 Zondag 22 Dec
01:00
Voelt als: 6.0°
1011.4 hPa 1.7 mm 4.3°
1
62%
07:00
Voelt als: 5.3°
1012.2 hPa 1.1 mm 3.6°
1
56%
13:00
Voelt als: 9.2°
1012.2 hPa 0.6 mm 7.0°
1
57%
19:00
Voelt als: 6.3°
1013.8 hPa 0.7 mm 4.9°
1
66%
 08:15     16:58    Daglengte: 8:43 Maandag 23 Dec
01:00
Voelt als: 3.2°
1015.6 hPa 0.4 mm 2.8°
1
58%
07:00
Voelt als: 2.5°
1015.3 hPa 0.4 mm 1.7°
1
46%
13:00
1014.6 hPa 0.6 mm 5.5°
0
53%
19:00
1015.5 hPa 1.1 mm 2.8°
1
55%
 08:15     16:59    Daglengte: 8:44 Dinsdag 24 Dec
01:00
Voelt als: 3.9°
1016.5 hPa 0.8 mm 2.4°
1
47%
07:00
Voelt als: 3.3°
1016.4 hPa 0.5 mm 1.8°
1
50%
13:00
1015.2 hPa 0.5 mm 5.0°
0
49%
19:00
Voelt als: 4.3°
1015.2 hPa 0.5 mm 2.3°
1
50%
 08:16     16:59    Daglengte: 8:43 Woensdag 25 Dec
01:00
Voelt als: 3.1°
1014.8 hPa 0.7 mm 1.0°
1
50%
07:00
1013.8 hPa 0.7 mm 1.0°
1
56%
13:00
1012.8 hPa 1.2 mm 4.4°
0
63%
19:00
1012.7 hPa 1.6 mm 2.4°
1
67%
 08:16     17:00    Daglengte: 8:44 Donderdag 26 Dec
01:00
Voelt als: 2.7°
1012.8 hPa 1.2 mm 1.1°
1
63%
07:00
Voelt als: 1.9°
1012.0 hPa 1.4 mm 0.5°
1
62%
13:00
Voelt als: 6.7°
1011.7 hPa 1.7 mm 4.4°
1
68%
19:00
Voelt als: 3.3°
1012.8 hPa 1.1 mm 2.0°
1
67%
 08:16     17:01    Daglengte: 8:45 Vrijdag 27 Dec
01:00
Voelt als: 2.3°
1013.5 hPa 0.8 mm 1.1°
1
60%
  CAPE Lifted Index Hail Supercell Tornado SRH 3km CL BTM PRES CL TOP PRES Swiss DWD icon SMHI TS
 08:08     16:55    Daglengte: 8:47 Vandaag
05:00 10 J/kg 8.3 K 0 % 0 % 0 % 0 m²/s² 0 0 11.51 45
06:00 5 J/kg 9.4 K 0 % 0 % 0 % 0 m²/s² 0 0 12.76 2
07:00 0 J/kg 9.9 K 0 % 0 % 0 % 0 m²/s² 0 0 13.47 2
08:00 0 J/kg 10.2 K 0 % 0 % 0 % 0 m²/s² 0 0 14.37 2
09:00 0 J/kg 10.2 K 0 % 0 % 0 % 0 m²/s² 0 0 14.85 2
10:00 5 J/kg 9.9 K 0 % 0 % 0 % 0 m²/s² 0 0 14.22 2
11:00 10 J/kg 9.9 K 0 % 0 % 0 % 0 m²/s² 0 0 13.56 1
12:00 10 J/kg 9.6 K 0 % 0 % 0 % 0 m²/s² 0 0 12.42 1
13:00 2 J/kg 9.5 K 0 % 0 % 0 % 0 m²/s² 0 0 11.75 1
14:00 0 J/kg 9.0 K 0 % 0 % 0 % 0 m²/s² 0 0 10.71 0
15:00 0 J/kg 7.0 K 0 % 0 % 0 % 0 m²/s² 0 0 8.5 1
16:00 0 J/kg 5.8 K 0 % 0 % 0 % 0 m²/s² 0 0 7.48 1
17:00 0 J/kg 5.5 K 0 % 0 % 0 % 0 m²/s² 0 0 7.24 1
18:00 0 J/kg 5.5 K 0 % 0 % 0 % 0 m²/s² 0 0 7 2
19:00 0 J/kg 5.7 K 0 % 0 % 0 % 0 m²/s² 0 0 6.9 2
20:00 0 J/kg 5.1 K 0 % 0 % 0 % 0 m²/s² 0 0 5.46 3
21:00 0 J/kg 3.9 K 0 % 0 % 0 % 0 m²/s² 0 0 4.23 3
22:00 0 J/kg 3.5 K 0 % 0 % 0 % 0 m²/s² 0 0 3.74 61
23:00 0 J/kg 2.4 K 0 % 0 % 0 % 0 m²/s² 0 0 2.67 61
 08:09     16:55    Daglengte: 8:46 Morgen
00:00 0 J/kg 1.5 K 0 % 0 % 0 % 0 m²/s² 0 0 1.74 61
01:00 0 J/kg 1.9 K 0 % 0 % 0 % 0 m²/s² 0 0 2.14 61
02:00 0 J/kg 1.3 K 0 % 0 % 0 % 0 m²/s² 0 0 1.45 61
03:00 0 J/kg 0.2 K 0 % 0 % 0 % 0 m²/s² 0 0 0.35 61
04:00 0 J/kg 1.4 K 0 % 0 % 0 % 0 m²/s² 0 0 1.76 63
05:00 2 J/kg 1.1 K 0 % 0 % 0 % 0 m²/s² 0 0 1.25 61
06:00 0 J/kg -0.2 K 0 % 0 % 0 % 0 m²/s² 0 0 1.72 63
07:00 66 J/kg 0.0 K 0 % 0 % 0 % 0 m²/s² 0 0 2.88 63
08:00 84 J/kg 0.5 K 0 % 0 % 0 % 0 m²/s² 0 0 1.19 63
09:00 42 J/kg 0.9 K 0 % 0 % 0 % 0 m²/s² 0 0 2.58 63
10:00 115 J/kg 2.3 K 0 % 0 % 0 % 0 m²/s² 0 0 2.81 3
11:00 189 J/kg 3.6 K 0 % 0 % 0 % 0 m²/s² 0 0 5.67 3
12:00 153 J/kg 4.4 K 0 % 0 % 0 % 0 m²/s² 0 0 5.42 3
13:00 82 J/kg 5.3 K 0 % 0 % 0 % 0 m²/s² 0 0 5.87 80
14:00 12 J/kg 7.1 K 0 % 0 % 0 % 0 m²/s² 0 0 9.05 80
15:00 51 J/kg 6.3 K 0 % 0 % 0 % 0 m²/s² 0 0 7.17 80
16:00 35 J/kg 7.9 K 0 % 0 % 0 % 0 m²/s² 0 0 10.21 80
17:00 2 J/kg 9.2 K 0 % 0 % 0 % 0 m²/s² 0 0 10.7 80
18:00 0 J/kg 10.0 K 0 % 0 % 0 % 0 m²/s² 0 0 11.95 80
19:00 22 J/kg 10.6 K 0 % 0 % 0 % 0 m²/s² 0 0 13.33 80
20:00 6 J/kg 11.6 K 0 % 0 % 0 % 0 m²/s² 0 0 14.51 80
21:00 0 J/kg 12.3 K 0 % 0 % 0 % 0 m²/s² 0 0 15.93 80
22:00 0 J/kg 10.5 K 0 % 0 % 0 % 0 m²/s² 0 0 14.07 3
23:00 6 J/kg 10.8 K 0 % 0 % 0 % 0 m²/s² 0 0 13.32 80
 08:10     16:55    Daglengte: 8:45 Zaterdag 14 Dec
00:00 1 J/kg 11.3 K 0 % 0 % 0 % 0 m²/s² 0 0 12.05 3
01:00 0 J/kg 10.2 K 0 % 0 % 0 % 0 m²/s² 0 0 10.44 61
02:00 0 J/kg 6.6 K 0 % 0 % 0 % 0 m²/s² 0 0 6.84 61
03:00 0 J/kg 4.7 K 0 % 0 % 0 % 0 m²/s² 0 0 5.27 61
04:00 0 J/kg 4.1 K 0 % 0 % 0 % 0 m²/s² 0 0 4.34 61
05:00 0 J/kg 2.5 K 0 % 0 % 0 % 0 m²/s² 0 0 2.74 80
06:00 0 J/kg 2.5 K 0 % 0 % 0 % 0 m²/s² 0 0 3.04 80
07:00 0 J/kg 4.4 K 0 % 0 % 0 % 0 m²/s² 0 0 5.78 80
08:00 0 J/kg 4.2 K 0 % 0 % 0 % 0 m²/s² 0 0 4.74 80
09:00 0 J/kg 4.0 K 0 % 0 % 0 % 0 m²/s² 0 0 4.84 80
10:00 0 J/kg 4.4 K 0 % 0 % 0 % 0 m²/s² 0 0 5.48 61
11:00 0 J/kg 4.5 K 0 % 0 % 0 % 0 m²/s² 0 0 5.49 80
12:00 0 J/kg 4.6 K 0 % 0 % 0 % 0 m²/s² 0 0 6.13 80
13:00 0 J/kg 4.4 K 0 % 0 % 0 % 0 m²/s² 0 0 5.48 3
14:00 0 J/kg 4.0 K 0 % 0 % 0 % 0 m²/s² 0 0 5.05 3
15:00 0 J/kg 3.6 K 0 % 0 % 0 % 0 m²/s² 0 0 4.74 3
16:00 0 J/kg 3.4 K 0 % 0 % 0 % 0 m²/s² 0 0 5.2 3
17:00 0 J/kg 3.4 K 0 % 0 % 0 % 0 m²/s² 0 0 5.26 3
18:00 0 J/kg 3.3 K 0 % 0 % 0 % 0 m²/s² 0 0 4.86 3
19:00 0 J/kg 3.3 K 0 % 0 % 0 % 0 m²/s² 0 0 4.02 3
20:00 0 J/kg 2.5 K 0 % 0 % 0 % 0 m²/s² 0 0 2.83 61
21:00 0 J/kg 2.1 K 0 % 0 % 0 % 0 m²/s² 0 0 2.76 61
22:00 0 J/kg 2.5 K 0 % 0 % 0 % 0 m²/s² 0 0 3.76 63
23:00 0 J/kg 3.0 K 0 % 0 % 0 % 0 m²/s² 0 0 4.8 61
 08:10     16:55    Daglengte: 8:45 Zondag 15 Dec
00:00 0 J/kg 3.5 K 0 % 0 % 0 % 0 m²/s² 0 0 5.81 61
01:00 0 J/kg 4.2 K 0 % 0 % 0 % 0 m²/s² 0 0 8.01 61
02:00 0 J/kg 4.8 K 0 % 0 % 0 % 0 m²/s² 0 0 9.15
03:00 0 J/kg 4.6 K 0 % 0 % 0 % 0 m²/s² 0 0 8.11
04:00 0 J/kg 4.5 K 0 % 0 % 0 % 0 m²/s² 0 0 6.6
Temp Baro Wind Neerslag
  EWN Forecast EWN WRFDA DWD ICON FMI HIRLAM MET Norway GFS
 08:08     16:55    Daglengte: 8:47 Vandaag
07:00 2.0° 1013.4 hPa 1.3 m/s 2.5 mm 2.7° 1011.3 hPa 0.4 m/s 10.6 mm 1.6° 1013.3 hPa 1.4 m/s 3.6 mm 3.3° 1014.1 hPa 1.4 m/s 0.0 mm 1.8° 1013.8 hPa 0.4 m/s 2.0° 1011.8 hPa 1.8 m/s
10:00 2.6° 1013.3 hPa 0.8 m/s 0.0 mm 3.3° 1010.1 hPa 0.4 m/s 11.1 mm 2.3° 1013.5 hPa 0.8 m/s 0.0 mm 3.6° 1013.7 hPa 0.2 m/s 0.0 mm 1.9° 1013.8 hPa 0.8 m/s 2.7° 1011.3 hPa 0.6 m/s
13:00 5.0° 1010.3 hPa 1.3 m/s 0.0 mm 4.7° 1008.2 hPa 2.0 m/s 11.5 mm 4.3° 1010.8 hPa 0.5 m/s 0.0 mm 6.1° 1010.4 hPa 2.3 m/s 0.0 mm 4.7° 1010.6 hPa 1.1 m/s 5.3° 1009.4 hPa 0.6 m/s
16:00 4.6° 1006.3 hPa 1.8 m/s 0.0 mm 4.1° 1003.6 hPa 3.4 m/s 11.6 mm 4.2° 1008.2 hPa 1.1 m/s 0.0 mm 6.9° 1007.1 hPa 2.7 m/s 0.0 mm 4.1° 1006.2 hPa 1.8 m/s 3.8° 1006.5 hPa 1.3 m/s
19:00 3.4° 1002.2 hPa 2.3 m/s 0.0 mm 4.0° 999.9 hPa 5.1 m/s 11.6 mm 3.0° 1004.5 hPa 1.5 m/s 0.0 mm 7.1° 1003.6 hPa 4.2 m/s 0.0 mm 2.9° 1001.9 hPa 2.1 m/s -0.0° 1004.7 hPa 2.2 m/s
22:00 4.1° 999.7 hPa 2.9 m/s 1.4 mm 5.2° 995.8 hPa 6.8 m/s 13.0 mm 4.2° 1000.2 hPa 2.2 m/s 0.2 mm 7.2° 998.6 hPa 7.5 m/s 0.0 mm 2.3° 1000.9 hPa 1.5 m/s 2.3° 1001.3 hPa 3.0 m/s
 08:09     16:55    Daglengte: 8:46 Morgen
01:00 4.6° 997.7 hPa 2.3 m/s 6.3 mm 6.2° 993.2 hPa 6.8 m/s 20.3 mm 4.5° 997.6 hPa 2.0 m/s 3.2 mm 7.6° 995.9 hPa 6.1 m/s 0.0 mm 2.7° 998.8 hPa 1.3 m/s 3.9° 998.6 hPa 3.4 m/s
04:00 5.2° 993.8 hPa 2.3 m/s 7.1 mm 7.2° 990.3 hPa 5.2 m/s 28.8 mm 4.9° 994.0 hPa 2.3 m/s 5.1 mm 8.5° 990.7 hPa 6.5 m/s 0.0 mm 3.6° 994.6 hPa 1.4 m/s 5.0° 994.5 hPa 3.7 m/s
07:00 5.9° 990.9 hPa 2.9 m/s 9.7 mm 7.7° 988.4 hPa 5.2 m/s 37.5 mm 6.0° 991.0 hPa 1.9 m/s 5.8 mm 9.9° 986.7 hPa 6.0 m/s 0.0 mm 4.2° 991.8 hPa 1.7 m/s 6.0° 992.4 hPa 3.9 m/s
10:00 6.2° 992.4 hPa 2.6 m/s 12.5 mm 7.2° 990.4 hPa 6.2 m/s 40.6 mm 6.3° 994.0 hPa 0.9 m/s 5.6 mm 10.2° 989.2 hPa 5.7 m/s 0.0 mm 4.4° 993.4 hPa 1.4 m/s 5.6° 993.2 hPa 1.2 m/s
13:00 6.5° 994.4 hPa 3.1 m/s 9.3 mm 5.8° 991.9 hPa 7.2 m/s 44.7 mm 6.5° 994.2 hPa 3.5 m/s 0.6 mm 8.5° 990.6 hPa 5.3 m/s 0.0 mm 5.2° 995.5 hPa 1.6 m/s 5.1° 994.6 hPa 2.4 m/s
16:00 5.1° 997.2 hPa 3.0 m/s 9.9 mm 5.4° 994.2 hPa 6.8 m/s 56.1 mm 4.5° 996.7 hPa 3.0 m/s 1.3 mm 6.6° 993.7 hPa 6.6 m/s 0.0 mm 4.3° 998.3 hPa 1.7 m/s 4.3° 996.7 hPa 2.6 m/s
19:00 3.8° 1000.9 hPa 2.2 m/s 9.4 mm 3.8° 997.9 hPa 5.4 m/s 57.0 mm 3.2° 1001.1 hPa 1.6 m/s 2.0 mm 5.8° 998.0 hPa 6.8 m/s 0.0 mm 3.5° 1001.5 hPa 0.9 m/s 3.4° 1001.2 hPa 2.5 m/s
22:00 3.5° 1002.7 hPa 1.0 m/s 9.2 mm 3.8° 1000.9 hPa 3.5 m/s 57.3 mm 2.6° 1004.0 hPa 0.6 m/s 1.4 mm 3.6° 1002.3 hPa 0.5 m/s 3.5° 1004.7 hPa 1.6 m/s
 08:10     16:55    Daglengte: 8:45 Zaterdag 14 Dec
01:00 3.4° 1003.2 hPa 1.5 m/s 11.7 mm 4.5° 1002.4 hPa 2.3 m/s 57.9 mm 2.8° 1005.2 hPa 0.5 m/s 1.0 mm 3.3° 1002.9 hPa 1.3 m/s 3.2° 1007.2 hPa 0.7 m/s
04:00 4.3° 1003.1 hPa 1.7 m/s 16.5 mm 5.3° 1002.3 hPa 3.4 m/s 64.9 mm 3.1° 1006.2 hPa 1.1 m/s 1.7 mm 4.0° 1002.7 hPa 1.5 m/s 3.4° 1007.1 hPa 1.5 m/s
07:00 6.3° 1004.4 hPa 1.5 m/s 14.3 mm 7.4° 1004.3 hPa 1.9 m/s 76.9 mm 3.4° 1007.5 hPa 0.8 m/s 2.4 mm 6.5° 1003.3 hPa 1.5 m/s 5.1° 1008.3 hPa 1.9 m/s
10:00 6.8° 1006.8 hPa 1.7 m/s 20.5 mm 9.5° 1006.4 hPa 1.9 m/s 84.7 mm 4.2° 1010.0 hPa 0.5 m/s 4.3 mm 6.9° 1006.2 hPa 1.9 m/s 6.8° 1009.7 hPa 1.8 m/s
13:00 10.4° 1008.0 hPa 1.4 m/s 19.8 mm 10.9° 1007.8 hPa 3.7 m/s 89.4 mm 6.5° 1010.4 hPa 0.5 m/s 2.7 mm 11.2° 1007.4 hPa 1.2 m/s 7.4° 1010.1 hPa 1.8 m/s
16:00 9.1° 1010.1 hPa 1.6 m/s 19.3 mm 10.7° 1008.5 hPa 4.1 m/s 90.9 mm 8.9° 1010.8 hPa 0.1 m/s 0.5 mm 8.9° 1010.2 hPa 1.6 m/s 7.8° 1010.8 hPa 2.0 m/s
19:00 8.2° 1011.3 hPa 2.1 m/s 30.8 mm 9.8° 1009.8 hPa 3.7 m/s 91.6 mm 9.3° 1011.7 hPa 1.5 m/s 0.1 mm 6.9° 1011.4 hPa 2.0 m/s 7.6° 1012.2 hPa 2.0 m/s
22:00 7.9° 1011.6 hPa 2.1 m/s 34.0 mm 9.5° 1011.1 hPa 4.0 m/s 91.7 mm 8.9° 1012.2 hPa 0.8 m/s 5.2 mm 6.7° 1011.6 hPa 2.0 m/s 7.6° 1013.5 hPa 1.9 m/s
 08:10     16:55    Daglengte: 8:45 Zondag 15 Dec
01:00 7.6° 1011.9 hPa 2.2 m/s 32.1 mm 8.5° 1010.6 hPa 4.4 m/s 91.7 mm 9.2° 1012.9 hPa 1.5 m/s 2.3 mm 6.5° 1011.8 hPa 2.1 m/s 6.2° 1013.6 hPa 2.2 m/s
04:00 6.9° 1011.7 hPa 2.5 m/s 91.8 mm 9.1° 1012.0 hPa 5.5 m/s 91.8 mm 6.5° 1011.6 hPa 2.0 m/s 6.1° 1014.6 hPa 2.3 m/s
07:00 7.0° 1011.5 hPa 2.3 m/s 91.8 mm 10.0° 1011.7 hPa 5.2 m/s 91.8 mm 6.5° 1011.5 hPa 1.8 m/s 6.9° 1015.2 hPa 2.1 m/s
10:00 10.9° 1012.0 hPa 1.4 m/s 54.7 mm 11.2° 1011.6 hPa 1.3 m/s 7.7° 1016.6 hPa 1.8 m/s 54.7 mm
13:00 13.2° 1012.0 hPa 1.1 m/s 54.7 mm 13.5° 1011.6 hPa 1.1 m/s 10.1° 1015.8 hPa 1.4 m/s 54.7 mm
16:00 11.0° 1011.8 hPa 1.2 m/s 54.7 mm 11.2° 1011.5 hPa 1.1 m/s 8.1° 1015.5 hPa 2.3 m/s 54.7 mm
19:00 8.8° 1011.9 hPa 1.2 m/s 54.7 mm 9.0° 1011.4 hPa 1.1 m/s 6.6° 1016.9 hPa 2.0 m/s 54.7 mm
22:00 7.3° 1013.2 hPa 0.8 m/s 54.7 mm 7.4° 1012.8 hPa 0.7 m/s 6.6° 1017.6 hPa 2.0 m/s 54.7 mm
 08:11     16:55    Daglengte: 8:44 Maandag 16 Dec
01:00 5.9° 1014.6 hPa 0.5 m/s 54.7 mm 5.8° 1014.3 hPa 0.3 m/s 6.5° 1017.5 hPa 2.2 m/s 54.7 mm
04:00 5.4° 1013.9 hPa 0.8 m/s 54.7 mm 5.2° 1013.6 hPa 0.6 m/s 7.0° 1016.7 hPa 2.0 m/s 54.7 mm
07:00 4.9° 1013.2 hPa 1.1 m/s 54.7 mm 4.7° 1012.9 hPa 1.0 m/s 6.8° 1016.0 hPa 2.7 m/s 54.7 mm
10:00 8.9° 1012.4 hPa 1.5 m/s 54.7 mm 8.9° 1012.1 hPa 1.4 m/s 8.3° 1015.8 hPa 2.6 m/s 54.7 mm
13:00 12.9° 1011.5 hPa 1.9 m/s 54.7 mm 13.2° 1011.3 hPa 1.8 m/s 10.0° 1014.2 hPa 3.3 m/s 54.7 mm
16:00 11.4° 1011.0 hPa 2.2 m/s 54.7 mm 11.6° 1010.8 hPa 2.1 m/s 9.2° 1013.2 hPa 3.2 m/s 54.7 mm
19:00 9.9° 1010.4 hPa 2.5 m/s 54.7 mm 10.0° 1010.2 hPa 2.4 m/s 8.2° 1012.9 hPa 3.1 m/s 54.7 mm
22:00 10.0° 1009.9 hPa 2.0 m/s 54.7 mm 10.2° 1009.6 hPa 1.9 m/s 8.4° 1012.8 hPa 2.7 m/s 54.7 mm
 08:12     16:56    Daglengte: 8:44 Dinsdag 17 Dec
01:00 10.2° 1009.2 hPa 1.5 m/s 54.7 mm 10.4° 1009.0 hPa 1.4 m/s 8.0° 1011.8 hPa 2.5 m/s 54.7 mm
04:00 9.8° 1009.0 hPa 1.6 m/s 54.7 mm 10.1° 1008.8 hPa 1.5 m/s 7.5° 1011.4 hPa 2.5 m/s 54.7 mm
07:00 9.6° 1008.8 hPa 1.7 m/s 54.7 mm 9.7° 1008.6 hPa 1.6 m/s 8.1° 1011.2 hPa 2.7 m/s 54.7 mm
10:00 11.6° 1009.3 hPa 1.4 m/s 54.7 mm 11.8° 1009.1 hPa 1.3 m/s 9.5° 1012.0 hPa 2.7 m/s 54.7 mm
13:00 13.7° 1009.8 hPa 1.2 m/s 54.7 mm 13.9° 1009.6 hPa 1.0 m/s 11.9° 1011.6 hPa 2.9 m/s 54.7 mm
16:00 11.5° 1010.3 hPa 1.4 m/s 55.0 mm 11.7° 1010.0 hPa 1.3 m/s 10.4° 1012.9 hPa 2.7 m/s 55.0 mm
19:00 9.3° 1010.9 hPa 1.7 m/s 55.0 mm 9.4° 1010.5 hPa 1.6 m/s 8.4° 1015.2 hPa 2.3 m/s 55.0 mm
22:00 8.3° 1013.1 hPa 1.2 m/s 55.1 mm 8.3° 1012.6 hPa 1.2 m/s 8.1° 1018.0 hPa 1.7 m/s 55.1 mm
 08:12     16:56    Daglengte: 8:44 Woensdag 18 Dec
01:00 7.3° 1015.1 hPa 0.9 m/s 55.1 mm 7.2° 1014.7 hPa 0.8 m/s 8.2° 1019.7 hPa 1.4 m/s 55.1 mm
04:00 7.4° 1015.0 hPa 1.3 m/s 55.1 mm 7.4° 1014.5 hPa 1.3 m/s 7.2° 1020.5 hPa 1.0 m/s 55.1 mm
07:00 7.5° 1014.9 hPa 1.8 m/s 55.1 mm 7.6° 1014.3 hPa 1.8 m/s 6.7° 1021.7 hPa 1.3 m/s 55.1 mm
10:00 9.7° 1015.0 hPa 1.1 m/s 55.1 mm 9.7° 1014.2 hPa 1.1 m/s 9.2° 1023.3 hPa 1.2 m/s 55.1 mm
13:00 11.9° 1014.9 hPa 0.4 m/s 55.1 mm 11.8° 1014.2 hPa 0.4 m/s 13.1° 1022.5 hPa 0.6 m/s 55.1 mm
16:00 10.5° 1014.2 hPa 0.8 m/s 55.1 mm 10.4° 1013.5 hPa 0.9 m/s 11.3° 1022.4 hPa 0.8 m/s 55.1 mm
19:00 9.0° 1013.7 hPa 1.3 m/s 55.1 mm 9.1° 1012.7 hPa 1.3 m/s 7.8° 1024.3 hPa 1.6 m/s 55.1 mm
22:00 7.7° 1012.8 hPa 1.2 m/s 55.1 mm 7.8° 1011.7 hPa 1.2 m/s 7.0° 1025.8 hPa 1.8 m/s 55.1 mm
 08:13     16:56    Daglengte: 8:43 Donderdag 19 Dec
01:00 6.5° 1011.9 hPa 1.2 m/s 55.1 mm 6.5° 1010.6 hPa 1.1 m/s 6.6° 1026.0 hPa 1.8 m/s 55.1 mm
04:00 5.7° 1010.7 hPa 1.2 m/s 55.1 mm 5.6° 1009.4 hPa 1.1 m/s 6.3° 1024.8 hPa 1.8 m/s 55.1 mm
07:00 4.8° 1009.5 hPa 1.3 m/s 55.1 mm 4.7° 1008.2 hPa 1.2 m/s 6.2° 1024.1 hPa 1.8 m/s 55.1 mm
13:00 11.7° 1006.4 hPa 0.8 m/s 55.1 mm 11.5° 1005.0 hPa 0.8 m/s 13.4° 1022.3 hPa 0.7 m/s 55.1 mm
19:00 10.1° 1004.6 hPa 1.2 m/s 55.1 mm 10.3° 1003.1 hPa 1.1 m/s 7.7° 1021.4 hPa 2.0 m/s 55.1 mm
 08:14     16:57    Daglengte: 8:43 Vrijdag 20 Dec
01:00 6.4° 1003.3 hPa 1.5 m/s 55.1 mm 6.3° 1001.8 hPa 1.5 m/s 7.4° 1019.8 hPa 2.1 m/s 55.1 mm
07:00 7.4° 999.4 hPa 2.3 m/s 55.1 mm 7.5° 997.8 hPa 2.3 m/s 6.1° 1016.9 hPa 2.3 m/s 55.1 mm
13:00 11.4° 992.6 hPa 0.5 m/s 55.1 mm 11.3° 990.7 hPa 0.4 m/s 12.9° 1013.7 hPa 1.9 m/s 55.1 mm
19:00 8.7° 991.8 hPa 0.5 m/s 55.1 mm 8.9° 990.1 hPa 0.3 m/s 7.0° 1011.1 hPa 2.3 m/s 55.1 mm
 08:14     16:57    Daglengte: 8:43 Zaterdag 21 Dec
01:00 5.5° 996.1 hPa 0.9 m/s 55.1 mm 5.4° 994.9 hPa 0.8 m/s 6.4° 1009.5 hPa 2.1 m/s 55.1 mm
07:00 5.4° 999.3 hPa 0.8 m/s 55.1 mm 5.2° 998.5 hPa 0.7 m/s 7.7° 1008.0 hPa 1.9 m/s 55.1 mm
13:00 12.1° 1007.9 hPa 1.0 m/s 55.1 mm 12.1° 1007.9 hPa 1.0 m/s 55.1 mm
19:00 8.2° 1009.9 hPa 1.2 m/s 55.1 mm 8.2° 1009.9 hPa 1.2 m/s 55.1 mm
 08:15     16:58    Daglengte: 8:43 Zondag 22 Dec
01:00 6.0° 1011.4 hPa 0.6 m/s 1.7 mm
07:00 5.3° 1012.2 hPa 0.7 m/s 1.1 mm
13:00 9.2° 1012.2 hPa 0.6 m/s 0.6 mm
19:00 6.5° 1013.8 hPa 1.0 m/s 0.7 mm
 08:15     16:58    Daglengte: 8:43 Maandag 23 Dec
01:00 4.3° 1015.6 hPa 1.5 m/s 0.4 mm
07:00 3.7° 1015.3 hPa 1.5 m/s 0.4 mm
13:00 8.1° 1014.6 hPa 0.5 m/s 0.6 mm
19:00 4.4° 1015.5 hPa 0.8 m/s 1.1 mm
 08:15     16:59    Daglengte: 8:44 Dinsdag 24 Dec
01:00 4.0° 1016.5 hPa 0.9 m/s 0.8 mm
07:00 3.8° 1016.4 hPa 1.0 m/s 0.5 mm
13:00 7.9° 1015.2 hPa 0.3 m/s 0.5 mm
19:00 4.4° 1015.2 hPa 0.9 m/s 0.5 mm
 08:16     16:59    Daglengte: 8:43 Woensdag 25 Dec
01:00 3.5° 1014.8 hPa 1.0 m/s 0.7 mm
07:00 3.5° 1013.8 hPa 0.7 m/s 0.7 mm
13:00 7.1° 1012.8 hPa 0.1 m/s 1.2 mm
19:00 4.1° 1012.7 hPa 0.7 m/s 1.6 mm
 08:16     17:00    Daglengte: 8:44 Donderdag 26 Dec
01:00 3.3° 1012.8 hPa 1.1 m/s 1.2 mm
07:00 2.8° 1012.0 hPa 1.2 m/s 1.4 mm
13:00 6.7° 1011.7 hPa 0.7 m/s 1.7 mm
19:00 3.6° 1012.8 hPa 1.0 m/s 1.1 mm
 08:16     17:01    Daglengte: 8:45 Vrijdag 27 Dec
01:00 2.9° 1013.5 hPa 1.0 m/s 0.8 mm
FMI Hirlam - 7.5 km EWN WRFDA - 12 km DWD ICON - 7 km GFS - 25 km Basiskaart